This is the latest recevied weather packets stored in our database for station/object WA7SB-7. If no packets are shown the sender has not sent any weather packets the latest 10 day(s).
| Time | Temp. | Humidity | Pressure | Rain* | Wind** | Luminosity | Snow |
|---|---|---|---|---|---|---|---|
| 1788127466 | 20.56° C | 69% | 1018.8 hPa | 0 mm | - | - | - |
| 1788127219 | 20.56° C | 69% | 1018.9 hPa | 0 mm | - | - | - |
| 1788127161 | 20.56° C | 68% | 1018.8 hPa | 0 mm | - | - | - |
| 1788126929 | 20.56° C | 67% | 1019 hPa | 0 mm | - | - | - |
| 1788126871 | 20.56° C | 67% | 1019 hPa | 0 mm | - | - | - |
| 1788126614 | 20.56° C | 68% | 1019.1 hPa | 0 mm | - | - | - |
| 1788126575 | 20.56° C | 68% | 1019.1 hPa | 0 mm | - | - | - |
| 1788126332 | 21.11° C | 67% | 1019.1 hPa | 0 mm | - | - | - |
| 1788126256 | 21.11° C | 67% | 1019.1 hPa | 0 mm | - | - | - |
| 1788126015 | 21.11° C | 67% | 1019.3 hPa | 0 mm | - | - | - |
| 1788125961 | 21.11° C | 68% | 1019.3 hPa | 0 mm | - | - | - |
| 1788125724 | 21.11° C | 68% | 1019.1 hPa | 0 mm | - | - | - |
| 1788125662 | 21.11° C | 68% | 1019.3 hPa | 0 mm | - | - | - |
| 1788125425 | 20.56° C | 68% | 1019.4 hPa | 0 mm | - | - | - |
| 1788125364 | 20.56° C | 68% | 1019.4 hPa | 0 mm | - | - | - |
| 1788125125 | 20.56° C | 69% | 1019.4 hPa | 0 mm | - | - | - |
| 1788125064 | 20.56° C | 68% | 1019.4 hPa | 0 mm | - | - | - |
| 1788124829 | 20.56° C | 67% | 1019.5 hPa | 0 mm | - | - | - |
| 1788124770 | 20.56° C | 67% | 1019.4 hPa | 0 mm | - | - | - |
| 1788124532 | 20.56° C | 71% | 1019.5 hPa | 0 mm | - | - | - |
| 1788124453 | 20.56° C | 69% | 1019.4 hPa | 0 mm | - | - | - |
| 1788124218 | 20° C | 69% | 1019.4 hPa | 0 mm | - | - | - |
| 1788124159 | 20° C | 69% | 1019.5 hPa | 0 mm | - | - | - |
| 1788123923 | 20° C | 71% | 1019.5 hPa | 0 mm | - | - | - |
| 1788123864 | 20° C | 70% | 1019.5 hPa | 0 mm | - | - | - |
* Rain latest hour (hover to see other rain measurements)
** Current wind speed in m/s (hover to see current wind gust speed)